EHI
0 0 0 0 0 0 0 0 0 0 0 0 0 0 0 0 0 0 0 0 0 0 0 0 0 0 0 0 0 0 0 0 0 0 0 0 0 0 0 0 0 0 0 0
0 0 0 0 0 0 0 0 0 0 0 0 0 0 0 0 0 0 0 0 0 0 0 0 0 0 0 0 0 0 0 0 0 0 0 0 0 0 0 0 0 0 0 0
0 0 0 0 0 0 0 0 0 0 0 0 0 0 0 0 0 0 0 0 0 0 0 0 0 0 0 0 0 0 0 0 0 0 0 0 0 0 0 0 0 0 0 0
0 0 0 0 0 0 0 0 0 0 0 0 0 0 0 0 0 0 0 0 0 0 0 0 0 0 0 0 0 0 0 0 0 0 0 0 0 0 0 0 0 0 0 0
0 0 0 0 0 0 0 0 0 0 0 0 0 0 0 0 0 0 0 0 0 0 0 0 0 0 0 0 0 0 0 0 0 0 0 0 0 0 0 0 0 0 0 0
0 0 0 0 0 0 0 0 0 0 0 0 0 0 0 0 0 0 0 0 0 0 0 0 0 0 0 0 0 0 0 0 0 0 0 0 0 0 0 0 0 0 0 0
0 0 0 0 0 0 0 0 0 0 0 0 0 0 0 0 0 0 0 0 0 0 0 0 0 0 0 0 0 0 0 0 0 0 0 0 0 0 0 0 0 0 0 0
0 0 0 0 0 0 0 0 0 0 0 0 0 0 0 0 0 0 0 0 0 0 0 0 0 0 0 0 0 0 0 0 0 0 0 0 0 0 0 0 0 0 0 0
0 0 0 0 0 0 0 0 0 0 0 0 0 0 0 0 0 0 0 0 0 0 0 0 0 0 0 0 0 0 0 0 0 0 0 0 0 0 0 0 0 0 0 0
0 0 0 0 0 0 0 0 0 0 0 0 0 0 0 0 0 0 0 0 0 0 0 0 0 0 0 0 0 0 0 0 0 0 0 0 0 0 0 0 0 0 0 0
0 0 0 0 0 0 0 0 0 0 0 0 0 0 0 0 0 0 0 0 0 0 0 0 0 0 0 0 0 0 0 0 0 0 0 0 0 0 0 0 0 0 0 0
0 0 0 0 0 0 0 0 0 0 0 0 0 0 0 0 0 0 0 0 0 0 0 0 0 0 0 0 0 0 0 0 0 0 0 0 0 0 0 0 0 0 0 0
0 0 0 0 0 0 0 0 0 0 0 0 0 0 0 0 0 0 0 0 0 0 0 0 0 0 0 0 0 0 0 0 0 0 0 0 0 0 0 0 0 0 0 0
0 0 0 0 0 0 0 0 0 0 0 0 0 0 0 0 0 0 0 0 0 0 0 0 0 0 0 0 0 0 0 0 0 0 0 0 0 0 0 0 0 0 0 0
0 0 0 0 0 0 0 0 0 0 0 0 0 0 0 0 0 0 0 0 0 0 0 0 0 0 0 0 0 0 0 0 0 0 0 0 0 0 0 0 0 0 0 0
0 0 0 0 0 0 0 0 0 0 0 0 0 0 0 0 0 0 0 0 0 0 0 0 0 0 0 0 0 0 0 0 0 0 0 0 0 0 0 0 0 0 0 0
0 0 0 0 0 0 0 0 0 0 0 0 0 0 0 0 0 0 0 0 0 0 0 0 0 0 0 0 0 0 0 0 0 0 0 0 0 0 0 0 0 0 0 0
0 0 0 0 0 0 0 0 0 0 0 0 0 0 0 0 0 0 0 0 0 0 0 0 0 0 0 0 0 0 0 0 0 0 0 0 0 0 0 0 0 0 0 0
0 0 0 0 0 0 0 0 0 0 0 0 0 0 0 0 0 0 0 0 0 0 0 0 0 0 0 0 0 0 0 0 0 0 0 0 0 0 0 0 0 0 0 0
0 0 0 0 0 0 0 0 0 0 0 0 0 0 0 0 0 0 0 0 0 0 0 0 0 0 0 0 0 0 0 0 0 0 0 0 0 0 0 0 0 0 0 0
0 0 0 0 0 0 0 0 0 0 0 0 0 0 0 0 0 0 0 0 0 0 0 0 0 0 0 0 0 0 0 0 0 0 0 0 0 0 0 0 0 0 0 0
0 0 0 0 0 0 0 0 0 0 0 0 0 0 0 0 0 0 0 0 0 0 0 0 0 0 0 0 0 0 0 0 0 0 0 0 0 0 0 0 0 0 0 0
0 0 0 0 0 0 0 0 0 0 0 0 0 0 0 0 0 0 0 0 0 0 0 0 0 0 0 0 0 0 0 0 0 0 0 0 0 0 0 0 0 0 0 0
0 0 0 0 0 0 0 0 0 0 0 0 0 0 0 0 0 0 0 0 0 0 0 0 0 0 0 0 0 0 0 0 0 0 0 0 0 0 0 0 0 0 0 0
0 0 0 0 0 0 0 0 0 0 0 0 0 0 0 0 0 0 0 0 0 0 0 0 0 0 0 0 0 0 0 0 0 0 0 0 0 0 0 0 0 0 0 0
0 0 0 0 0 0 0 0 0 0 0 0 0 0 0 0 0 0 0 0 0 0 0 0 0 0 0 0 0 0 0 0 0 0 0 0 0 0 0 0 0 0 0 0
Wind_Speed
2 3 7 8 10 6 2 5 8 7 6 7 12 19 14 10 11 11 11 11 11 11 10 6 5 5 4 4 6 7 9 11 12 10 9 9 7 6 6 7 9 9 9 8
2 8 9 6 5 7 8 12 13 11 7 9 13 24 18 13 15 16 16 16 13 11 7 5 5 5 5 5 6 8 10 11 10 8 6 6 7 6 6 6 8 8 8 8
10 3 6 8 7 8 10 11 10 9 7 7 13 21 14 12 16 18 17 15 14 13 12 9 8 7 6 6 8 9 10 10 10 11 11 11 7 6 5 6 6 6 8 8
9 8 6 5 7 10 11 8 10 10 8 7 5 13 6 6 9 12 12 11 12 12 11 9 9 9 8 7 6 8 9 10 12 13 16 17 11 8 5 5 6 7 7 7
7 5 8 12 10 9 7 5 8 9 8 10 7 12 12 5 9 9 10 12 13 13 13 12 13 12 8 7 8 9 10 10 11 10 15 14 11 9 9 8 9 7 6 7
11 6 6 7 7 9 5 3 6 6 7 14 11 11 15 7 9 9 11 12 13 13 13 12 10 9 8 8 8 10 11 10 9 10 11 14 17 16 14 10 8 6 5 5
9 12 9 5 4 5 8 7 5 7 9 10 8 12 16 8 10 13 14 13 13 12 11 11 13 14 13 13 12 11 13 11 9 10 10 13 16 16 15 11 9 7 5 4
5 7 10 10 11 9 13 12 9 6 6 5 6 14 12 10 12 13 14 13 10 8 9 13 16 17 16 16 14 14 14 12 10 11 11 11 12 9 8 8 8 7 5 5
6 6 3 7 7 8 8 13 9 7 6 7 9 10 11 7 10 12 13 12 11 9 11 13 14 15 16 16 15 15 15 13 11 11 12 11 10 10 10 8 7 6 6 5
6 7 5 4 6 10 8 5 6 10 7 10 9 10 9 7 8 10 12 13 12 10 11 13 13 13 12 13 12 12 14 14 13 12 11 10 10 11 10 9 9 7 6 6
6 6 5 5 12 14 13 11 10 7 6 6 7 10 6 7 4 6 10 11 11 12 14 14 13 12 12 12 13 13 14 14 13 11 12 12 11 10 10 9 8 7 6 6
9 6 8 11 11 12 14 15 15 10 8 6 7 13 3 4 6 8 10 8 5 8 11 12 13 13 14 14 14 13 13 14 12 12 12 12 11 10 10 9 7 7 6 5
10 6 6 6 4 7 11 16 17 14 7 8 10 13 1 5 9 8 8 4 3 8 11 12 12 13 13 13 13 13 13 13 12 13 13 12 10 10 10 8 7 6 6 5
9 8 11 12 9 6 10 14 18 18 12 13 17 20 15 13 13 10 7 1 6 9 12 12 12 11 11 12 13 13 12 12 13 13 13 11 10 9 9 8 7 6 6 5
8 9 13 19 20 17 18 18 19 23 21 14 13 16 19 13 10 8 4 4 9 11 12 12 12 11 12 12 12 12 12 11 13 13 12 10 9 8 8 7 7 6 5 5
7 8 10 17 18 18 20 20 20 22 21 22 18 19 12 8 5 5 4 8 11 12 13 12 12 13 13 13 14 13 12 11 12 13 11 10 9 8 7 7 6 6 5 3
6 6 7 11 12 11 9 11 15 15 13 14 20 19 9 9 8 6 5 8 11 12 12 13 13 13 13 13 14 14 12 12 12 12 11 9 9 8 7 7 6 5 3 2
8 5 5 8 9 5 5 5 7 11 13 14 14 12 8 6 5 3 3 7 8 11 12 11 12 11 11 11 12 12 12 12 12 11 10 9 8 8 7 6 5 4 2 2
10 6 4 5 7 8 6 2 2 4 6 12 15 14 6 1 1 2 1 3 7 8 9 10 11 12 13 13 14 14 12 11 11 10 9 8 8 8 6 5 4 2 2 2
4 5 4 4 6 5 5 3 2 2 5 5 11 12 6 1 1 2 4 4 8 11 11 12 13 14 13 12 13 15 13 12 11 9 8 7 7 7 6 5 3 2 2 2
4 4 5 5 5 7 6 3 3 1 4 3 5 8 6 4 1 3 5 7 9 11 13 13 14 12 12 13 14 14 12 10 9 10 9 8 7 6 6 4 3 2 2 3
6 4 4 3 4 7 4 2 2 4 4 3 1 3 6 7 8 8 9 10 11 13 13 13 13 12 9 11 14 14 11 10 10 10 9 7 6 5 5 5 3 3 3 3
6 7 5 7 7 5 3 3 4 3 3 2 1 4 10 9 7 8 9 10 10 12 12 11 15 14 9 8 12 15 10 10 11 10 8 7 6 5 4 4 3 2 2 2
4 3 3 5 7 6 4 3 2 3 2 3 5 7 7 11 12 12 11 10 11 11 11 12 14 14 10 9 10 13 11 10 11 10 7 6 5 4 4 3 2 2 2 3
5 4 3 5 7 5 3 0 2 4 7 9 10 9 12 16 14 12 11 10 10 11 9 10 12 14 12 11 11 10 9 10 10 8 6 5 4 3 2 2 1 2 3 4
6 7 7 6 5 4 1 2 5 6 7 9 14 13 9 11 15 13 11 10 10 11 11 12 13 14 12 11 10 7 7 9 9 7 5 3 3 2 2 2 3 5 6 10
Wind_Direction
159 183 210 206 210 228 271 278 277 278 305 306 277 278 276 268 270 271 270 264 253 247 252 251 229 201 186 173 153 147 143 146 144 139 133 125 115 108 96 94 99 105 108 103
198 236 227 217 216 234 249 264 272 280 267 275 280 280 275 252 254 254 256 258 257 252 251 227 202 188 192 180 161 151 153 154 152 143 126 116 117 105 93 94 92 98 103 102
211 246 208 201 206 223 236 243 252 263 303 280 290 285 258 238 235 243 243 242 243 240 238 222 203 201 193 187 172 159 155 149 140 131 119 114 104 100 102 101 93 89 96 95
239 239 250 227 217 210 249 227 233 248 257 267 237 284 263 232 245 245 246 241 237 233 225 211 195 196 193 185 163 149 147 144 143 142 141 143 143 138 134 126 115 100 91 94
228 208 215 230 226 200 227 215 223 231 237 257 230 266 276 205 249 251 248 242 234 228 217 204 195 192 175 158 150 142 139 142 147 148 148 140 129 121 123 120 113 101 88 86
242 214 208 219 224 205 210 257 262 241 240 256 221 228 272 201 225 238 242 238 233 226 213 201 183 157 146 146 143 142 142 142 144 142 142 138 135 135 135 131 121 110 97 83
251 233 213 184 205 196 190 218 239 223 223 247 178 213 254 217 213 222 237 240 235 226 203 180 165 163 161 159 155 150 148 143 140 136 134 138 139 140 140 137 131 125 110 95
265 262 207 198 206 199 195 203 220 232 233 265 215 234 254 237 230 232 238 241 239 222 193 180 177 172 168 164 159 155 151 143 138 133 127 126 127 126 125 124 124 118 112 111
237 266 249 208 194 191 193 210 220 254 249 259 248 261 285 255 252 250 250 249 241 218 190 182 178 173 167 164 161 156 148 139 134 131 126 121 118 120 120 114 107 106 108 109
202 262 259 219 187 217 216 182 188 218 239 246 255 252 250 263 266 266 258 250 241 211 188 180 175 169 162 155 144 141 142 137 131 130 129 124 117 116 117 113 108 105 102 100
188 233 268 201 207 209 200 207 215 225 220 226 262 259 216 230 257 298 290 268 242 203 185 176 165 152 143 138 137 135 133 130 129 126 121 119 115 113 109 107 107 107 103 102
195 231 254 236 225 208 210 214 210 222 224 217 250 265 215 263 304 325 319 302 253 185 164 152 144 140 140 140 137 135 135 131 128 125 120 117 115 112 108 107 107 107 104 98
172 213 268 283 237 205 223 223 220 226 234 227 238 262 224 287 316 333 329 315 143 135 132 131 135 140 141 139 135 134 132 128 125 123 120 117 115 113 112 111 110 107 105 96
179 215 228 248 255 228 230 225 220 221 231 238 240 261 284 301 310 318 320 151 134 136 137 136 137 137 137 134 133 130 126 127 126 122 120 119 118 118 116 114 111 108 106 98
199 246 249 257 265 262 252 244 228 223 227 238 252 262 273 284 293 302 294 159 147 148 148 148 144 139 134 130 127 128 126 126 126 122 119 120 119 116 114 112 110 105 100 97
203 260 276 275 271 265 260 251 236 228 229 236 255 268 271 276 293 295 257 176 167 164 159 152 146 143 142 139 136 132 130 129 126 122 122 124 122 117 115 114 111 104 97 88
212 251 281 285 296 285 265 251 227 220 216 221 239 251 265 283 284 274 233 193 178 168 161 158 155 152 147 144 141 138 134 128 123 122 125 126 123 119 118 115 108 102 95 72
219 241 271 289 304 304 296 283 219 214 223 218 235 252 251 257 270 266 211 184 169 162 159 153 146 139 134 131 131 126 126 125 123 124 125 125 122 118 113 107 102 97 84 53
201 206 261 288 304 299 311 328 163 187 241 221 232 248 255 246 329 341 34 151 151 147 143 138 135 134 133 135 134 128 124 122 123 126 127 126 123 119 113 107 101 89 63 29
174 187 238 292 310 312 310 329 147 127 297 231 216 235 234 158 307 318 17 75 112 119 123 124 124 126 129 133 134 129 128 127 129 129 123 118 115 115 113 108 96 74 56 3
159 194 222 251 277 280 287 303 117 111 296 319 219 217 187 177 162 80 61 70 93 105 113 119 123 127 132 135 131 127 127 126 124 118 111 106 107 110 109 98 85 68 38 0
190 189 207 199 240 270 311 48 174 254 296 321 277 181 138 113 93 84 81 88 97 104 108 115 115 113 117 126 126 121 118 118 115 111 107 104 102 102 101 95 79 58 27 358
206 198 196 202 225 254 270 254 280 290 298 326 80 115 123 114 105 99 93 93 95 102 105 108 113 109 100 107 121 118 117 118 112 107 105 105 98 88 87 84 65 38 10 345
255 197 209 264 267 266 269 275 341 5 15 55 98 113 114 115 116 109 105 101 100 100 105 112 112 108 97 88 98 113 117 115 112 110 109 108 103 90 73 58 37 15 338 316
232 182 216 262 274 291 294 126 87 79 83 84 80 87 112 118 116 114 110 107 106 104 101 104 107 105 102 100 100 106 113 113 110 108 107 101 93 91 66 31 346 324 276 274
201 183 186 226 243 211 265 110 119 112 103 106 106 96 91 112 117 113 106 105 106 103 102 101 101 104 105 104 101 100 107 114 115 111 104 99 95 80 54 6 332 319 316 321